Location: Newark
(48.8833°N, 0.9236°W)
Time: 16:18:29
(UTC+00:00)

Tiros 1 despin weight - Pass Details

Date: 20 November 2019
Orbit: 594 x 642 km, 48.2° (Epoch: 10 December)

Event Time Altitude Azimuth Distance (km) Brightness Sun altitude
Rises 16:10:58 0° 274° (W) 2,835 ? 0.2°
Reaches altitude 10° 16:13:15 10° 273° (W) 1,937 ? -0.1°
Maximum altitude 16:17:41 79° 188° (S) 619 ? -0.8°
Drops below altitude 10° 16:22:11 10° 102° (ESE) 1,959 ? -1.4°
Sets 16:24:30 0° 101° (E) 2,871 ? -1.7°
